Location: Ambatotampy
(18.8181°S, 47.6186°E)
Time: 22:47:07
(UTC+00:00)

H-2A R/B - Pass Details

Date: 21 January 2021
Orbit: 577 x 655 km, 98.5° (Epoch: 24 February)

Event Time Altitude Azimuth Distance (km) Brightness Sun altitude
Rises 01:53:16 0° 166° (SSE) 2,864 6.1 -8.6°
Reaches altitude 10° 01:55:26 10° 164° (SSE) 1,967 5.2 -8.1°
Maximum altitude 01:59:42 77° 79° (E) 637 2.3 -7.2°
Drops below altitude 10° 02:04:03 10° 352° (N) 1,994 4.4 -6.2°
Sets 02:06:15 0° 350° (N) 2,906 5.2 -5.8°
